Norman Wells, Northwest Territories

3:42 PM MST on January 23, 2018 (GMT -0700)
Norman Wells

Weather History for CYVQ - December, 2013

Change the Weather History Date:

Thursday, December 5, 2013

  Actual Average Record
Temperature  
Mean Temperature -6 °F -  
Max Temperature 0 °F -8 °F 32 °F (2011)
Min Temperature -11 °F -22 °F -38 °F (2004)
Degree Days  
Heating Degree Days 70    
Moisture  
Dew Point -9 °F    
Average Humidity 77    
Maximum Humidity 85    
Minimum Humidity 65    
Precipitation  
Precipitation 0.03 in 0.02 in - ()
Sea Level Pressure  
Sea Level Pressure 30.75 in    
Wind  
Wind Speed 6 mph ()    
Max Wind Speed 10 mph    
Max Gust Speed -    
Visibility 11.4 miles    
Events Snow    
Averages and records for this station are not official NWS values.
T = Trace of Precipitation, MM = Missing Value Source: Averaged Metar Reports

Daily Weather History Graph

Daily Weather History Graph

Search for Another Location

Airport or City:

Trip Planner

Search our weather history database for the weather conditions in past years. The results will help you decide how hot, cold, wet, or windy it might be!

Date:

Astronomy

Dec. 05, 2013 Rise Set
Actual Time 11:15 AM MST 3:20 PM MST
Civil Twilight 9:53 AM MST 4:42 PM MST
Nautical Twilight 8:42 AM MST 5:53 PM MST
Astronomical Twilight 7:40 AM MST 6:55 PM MST
Moon 12:47 PM MST (12/5) 7:47 PM MST (12/5)
Length of Visible Light 6h 49m
Length of Day
4h 05m
Waxing Crescent, 11% of the Moon is Illuminated
Dec 5
Waxing Crescent
Dec 9
First Quarter
Dec 17
Full
Dec 25
Last Quarter
Jan 1
New

Hourly Weather History & Observations

Time (MST) Temp. Windchill Dew Point Humidity Pressure Visibility Wind Dir Wind Speed Gust Speed Precip Events Conditions
12:00 AM -4.0 °F -16.3 °F -7.6 °F 85% 30.79 in 6.0 mi East 5.8 mph - N/A Snow Light Snow
1:00 AM -2.2 °F -10.4 °F -7.6 °F 78% 30.79 in 6.0 mi East 3.5 mph - N/A Snow Light Snow
2:00 AM -2.2 °F -15.6 °F -7.6 °F 78% 30.81 in 6.0 mi ESE 6.9 mph - N/A Snow Light Snow
3:00 AM -2.2 °F -12.5 °F -7.6 °F 78% 30.81 in 6.0 mi ESE 4.6 mph - N/A Snow Light Snow
4:00 AM -2.2 °F -14.2 °F -7.6 °F 78% 30.82 in 6.0 mi ESE 5.8 mph - N/A Snow Light Snow
5:00 AM -3 °F - -8 °F 70% 30.82 in 6 mi East 4.6 mph - - Snow Light Snow
5:00 AM -2.2 °F -14.2 °F -7.6 °F 78% 30.82 in 6.0 mi East 5.8 mph - N/A Snow Light Snow
6:00 AM -2.2 °F -14.2 °F -7.6 °F 78% 30.82 in 4.0 mi East 5.8 mph - N/A Snow Light Snow
7:00 AM -2.2 °F -18.0 °F -7.6 °F 78% 30.81 in 5.0 mi ESE 9.2 mph - N/A Snow Light Snow
8:00 AM -2.2 °F -16.8 °F -7.6 °F 78% 30.80 in 5.0 mi ESE 8.1 mph - N/A Snow Light Snow
9:00 AM -2.2 °F -14.2 °F -7.6 °F 78% 30.80 in 5.0 mi ESE 5.8 mph - N/A Snow Light Snow
10:00 AM -2.2 °F -14.2 °F -7.6 °F 78% 30.79 in 6.0 mi ESE 5.8 mph - N/A Snow Light Snow
11:00 AM -2 °F - -7 °F 68% 30.78 in 15 mi ESE 5.8 mph - - Snow Light Snow
11:00 AM -2.2 °F -14.2 °F -7.6 °F 78% 30.77 in 15.0 mi ESE 5.8 mph - N/A Snow Light Snow
12:00 PM -2.2 °F -16.8 °F -5.8 °F 85% 30.76 in 15.0 mi ESE 8.1 mph - N/A Snow Light Snow
1:00 PM -2.2 °F -18.9 °F -7.6 °F 78% 30.76 in 20.0 mi ESE 10.4 mph - N/A Snow Light Snow
2:00 PM -2.2 °F -16.8 °F -7.6 °F 78% 30.74 in 20.0 mi ESE 8.1 mph - N/A Snow Light Snow
3:00 PM -0.4 °F -15.7 °F -5.8 °F 78% 30.73 in 20.0 mi SE 9.2 mph - N/A Snow Light Snow
4:00 PM -2.2 °F -18.9 °F -7.6 °F 78% 30.71 in 20.0 mi ESE 10.4 mph - N/A Snow Light Snow
5:00 PM -5 °F - -10 °F 71% 30.69 in 19 mi ESE 9.2 mph - - Snow Light Snow
5:00 PM -4.0 °F -20.2 °F -9.4 °F 78% 30.69 in 20.0 mi ESE 9.2 mph - N/A Snow Light Snow
6:00 PM -7.6 °F -22.1 °F -11.2 °F 84% 30.68 in 20.0 mi ESE 6.9 mph - N/A   Scattered Clouds
7:00 PM -7.6 °F -20.6 °F -13.0 °F 77% 30.68 in 30.0 mi East 5.8 mph - N/A   Partly Cloudy
8:00 PM -9.4 °F -24.3 °F -14.8 °F 77% 30.67 in 30.0 mi East 6.9 mph - N/A   Partly Cloudy
9:00 PM -9.4 °F -25.6 °F -14.8 °F 77% 30.65 in 30.0 mi East 8.1 mph - N/A   Partly Cloudy
10:00 PM -9.4 °F -26.8 °F -14.8 °F 77% 30.64 in 30.0 mi East 9.2 mph - N/A   Partly Cloudy
11:00 PM -11 °F - -16 °F 65% 30.62 in 28 mi East 5.8 mph - -   Partly Cloudy
11:00 PM -11.2 °F -24.8 °F -16.6 °F 77% 30.62 in 30.0 mi East 5.8 mph - N/A   Partly Cloudy